Vertical_Velocity
-0 1 2 1 1 0 -2 -3 -3 -3 -5 1 4 2 0 0 -1 -3 -4 -3 -2 -0 -1 -1 1 2 1 -3 -6 0 0 -4 8 6 3 3 3 -3 1 8 11 4 1
1 2 2 2 -0 -0 -1 -1 -1 1 -1 1 0 3 1 2 2 2 4 1 -1 -1 1 -3 1 0 -0 0 -6 -4 5 -2 -2 7 -2 4 -0 -5 5 7 4 3 2
2 -0 -1 -0 -1 -1 -0 -0 -1 1 0 1 -1 -0 -0 0 1 -1 -2 -1 -2 -1 0 -3 -0 -3 -2 3 -2 1 -1 -3 -4 5 -0 0 5 6 2 2 4 -3 -4
0 -1 -0 1 0 0 -0 -0 0 -3 -1 -2 -2 -1 -2 -1 0 1 -4 -2 -4 -3 -3 -4 -3 -4 -3 2 1 4 -0 -1 0 4 0 3 2 5 1 -0 -2 1 -0
-0 -1 -2 -0 -1 0 -1 -1 -0 -2 -2 -2 0 -2 -0 -2 -1 -2 -2 -3 -2 -1 -3 -3 -3 -2 -1 2 -0 0 6 -5 -2 1 -2 1 4 3 2 -2 1 -0 -0
3 1 -2 -0 -0 -1 -2 -3 -2 -2 -3 -1 -2 1 -2 -4 -2 -1 -1 -1 -1 -3 -3 -2 -3 -2 -0 1 3 2 5 4 -2 1 1 1 4 1 3 0 1 0 -3
-0 -1 -1 -0 1 -1 -2 -4 -5 -4 -3 -4 -2 -2 0 1 -3 -3 -2 -0 -1 -4 2 -3 -3 49 -6 -4 -7 1 -2 -2 3 -0 1 2 2 1 -3 3 -1 1 0
-2 -2 -3 -1 -0 -2 -2 -2 -2 -1 -1 -1 -0 -2 1 -0 -4 -1 -0 2 1 1 -2 -9 17 -5 -0 -13 36 -0 1 1 -2 -1 2 2 3 -3 3 -1 1 2 -0
-2 -3 -3 -4 -1 -2 -1 -2 -3 2 -2 -1 -0 -2 -0 -1 -3 -0 0 1 1 0 -2 -0 6 0 -4 0 2 39 -1 2 1 1 3 3 2 1 1 1 2 0 0
-2 -3 -3 -2 -2 1 -2 -2 -2 -0 1 -1 -1 -0 -1 0 -0 0 -0 0 1 -3 -0 -4 -3 14 6 1 20 9 1 1 1 1 0 1 -0 -0 1 -1 0 -1 -0
-2 -1 -0 -2 0 -2 -1 -2 -1 -1 0 -2 -1 -2 0 0 1 1 1 2 1 -0 -3 18 3 11 10 8 12 8 5 2 -1 2 3 3 2 -0 -0 0 -1 -1 -0
-1 1 1 -2 -0 -1 -2 -2 0 1 -1 -1 0 1 1 1 1 1 -0 1 1 3 6 4 5 4 9 5 4 4 1 1 4 6 5 -0 1 1 -0 0 -0 -1 -1
-3 -0 1 -2 -1 -2 -0 -1 0 1 1 2 1 2 0 0 2 -1 1 -1 4 3 -1 -0 4 -2 7 5 -2 0 2 4 3 3 -0 0 2 -0 -0 -1 -1 -1 -1
-1 1 0 -1 -2 -2 0 0 1 2 2 3 2 1 1 1 1 1 -2 4 2 -1 -1 1 1 1 -2 9 8 2 4 4 1 0 1 1 1 0 -1 -1 -1 0 1
-2 1 0 -2 -1 1 1 2 1 2 2 2 2 2 1 2 1 3 2 1 0 1 7 -1 2 3 2 5 3 2 1 2 2 -0 1 0 -0 -1 -2 -1 1 -0 -1
0 0 -1 -1 -0 1 2 1 1 2 1 1 2 2 2 2 2 6 3 4 3 2 1 3 5 4 3 5 3 1 1 2 0 1 -0 -0 -0 -2 -1 1 2 -1 -1
1 1 -3 -0 1 -1 0 -1 1 1 1 2 3 3 2 1 1 0 1 4 3 3 -1 2 5 7 1 2 2 2 2 0 -0 -1 -0 -1 -1 0 2 0 -1 -1 1
-1 -0 0 -1 -0 -1 0 -1 -0 1 2 2 2 3 4 1 0 -0 1 3 1 1 -2 -1 1 2 2 -0 0 1 -1 -1 -1 -1 -0 -1 -0 1 -0 1 0 0 -0
-0 -1 -2 0 0 1 -0 -0 1 1 2 2 1 3 3 2 0 -1 -1 2 5 8 6 4 3 1 0 1 2 1 -0 -0 -0 0 -0 1 1 0 1 1 -1 -1 -0
0 1 -0 -1 -1 -0 -0 0 1 1 2 1 2 4 1 1 -0 3 5 4 3 2 1 1 1 1 1 0 1 0 0 1 1 1 1 0 -1 -0 -1 -1 -1 -1 -1
-0 -0 0 1 -0 -0 0 0 1 1 1 2 2 1 -2 1 -2 -1 2 1 1 3 2 1 0 0 0 1 1 1 1 2 1 1 -1 -2 -2 -2 -1 -2 -1 -1 -2
1 0 0 0 0 -0 0 0 1 1 1 2 1 -1 1 2 0 -1 2 3 3 1 1 1 1 1 1 1 1 2 2 1 1 -0 -0 -0 0 0 -1 -2 -1 -0 -0
0 1 1 0 0 -0 0 1 2 1 3 3 0 1 1 2 2 1 3 1 2 1 1 2 2 2 2 2 2 1 1 1 -0 1 0 -1 -2 -1 -0 -0 -1 0 -1
1 1 0 1 1 -0 0 2 3 2 3 2 1 2 2 2 1 -0 1 2 2 1 1 1 1 1 2 2 2 2 1 -0 -1 -1 -1 -1 -1 -0 0 -0 -1 -1 -1
1 1 -0 0 1 0 0 2 3 3 2 2 1 2 2 1 2 3 3 2 2 2 1 1 1 2 3 2 1 -0 -1 -0 0 0 0 -0 -1 -0 0 -0 -1 0 -1
2 2 -0 0 0 1 0 1 3 2 2 2 2 4 3 3 4 2 2 3 2 2 1 1 1 1 1 2 1 0 -0 -2 -1 -0 -1 -1 -0 0 0 0 1 0 0
Height
5565 5563 5561 5559 5557 5556 5556 5555 5556 5556 5558 5559 5561 5563 5565 5567 5568 5571 5574 5577 5580 5583 5585 5589 5593 5596 5601 5604 5608 5613 5617 5621 5625 5631 5635 5638 5645 5649 5653 5653 5656 5658 5661
5553 5550 5548 5547 5546 5544 5543 5542 5543 5544 5544 5545 5546 5547 5549 5551 5553 5555 5559 5562 5566 5568 5571 5574 5578 5581 5586 5590 5595 5600 5604 5607 5612 5616 5621 5627 5631 5635 5638 5642 5644 5646 5648
5541 5538 5536 5534 5532 5531 5530 5529 5529 5529 5529 5529 5531 5532 5534 5535 5537 5539 5542 5545 5549 5553 5555 5557 5561 5564 5569 5575 5580 5585 5589 5594 5600 5605 5609 5614 5619 5623 5626 5628 5632 5635 5637
5529 5526 5523 5521 5519 5518 5517 5516 5515 5514 5514 5515 5515 5517 5518 5520 5521 5522 5525 5529 5532 5536 5539 5542 5545 5548 5552 5557 5563 5570 5576 5582 5588 5594 5597 5602 5607 5612 5615 5618 5620 5623 5624
5518 5515 5512 5510 5508 5506 5505 5503 5502 5500 5499 5499 5500 5499 5500 5502 5504 5506 5508 5512 5516 5519 5523 5526 5529 5532 5536 5542 5549 5557 5565 5571 5576 5581 5586 5591 5596 5600 5604 5606 5608 5610 5612
5509 5505 5502 5499 5496 5493 5490 5488 5486 5484 5482 5482 5481 5481 5480 5481 5483 5485 5489 5494 5500 5504 5509 5513 5517 5521 5525 5531 5540 5548 5556 5561 5566 5571 5575 5579 5584 5588 5592 5595 5597 5600 5602
5500 5496 5492 5488 5483 5478 5474 5471 5468 5466 5464 5462 5461 5461 5462 5463 5463 5466 5471 5479 5485 5491 5497 5502 5508 5509 5517 5524 5532 5539 5545 5551 5556 5561 5565 5570 5574 5578 5582 5584 5587 5590 5592
5491 5485 5480 5475 5469 5463 5459 5455 5451 5449 5447 5446 5446 5446 5448 5449 5450 5452 5457 5467 5474 5480 5487 5493 5497 5505 5511 5517 5522 5531 5537 5542 5547 5552 5556 5561 5565 5568 5573 5575 5578 5579 5580
5480 5473 5466 5460 5455 5449 5444 5440 5437 5436 5433 5434 5435 5435 5437 5437 5438 5443 5451 5458 5466 5473 5479 5485 5492 5498 5505 5511 5518 5523 5529 5533 5537 5543 5548 5553 5557 5560 5563 5565 5567 5568 5569
5467 5460 5453 5446 5441 5436 5431 5427 5424 5423 5422 5423 5424 5425 5425 5427 5432 5439 5446 5454 5460 5467 5474 5481 5487 5492 5499 5504 5510 5517 5522 5525 5531 5535 5539 5544 5547 5551 5554 5556 5558 5559 5559
5454 5447 5440 5434 5430 5425 5420 5416 5413 5413 5413 5413 5413 5414 5417 5422 5428 5435 5442 5449 5456 5463 5470 5475 5482 5487 5492 5499 5506 5512 5516 5519 5524 5528 5533 5536 5540 5543 5546 5548 5549 5550 5552
5442 5435 5429 5424 5419 5415 5409 5406 5405 5404 5402 5401 5402 5407 5413 5419 5426 5433 5440 5446 5453 5460 5467 5472 5478 5483 5489 5495 5501 5506 5511 5514 5519 5523 5527 5530 5533 5537 5539 5540 5542 5543 5544
5431 5425 5421 5416 5411 5406 5401 5399 5398 5396 5394 5396 5400 5406 5412 5418 5424 5430 5437 5444 5450 5457 5463 5468 5474 5479 5486 5491 5497 5502 5506 5510 5514 5517 5520 5524 5528 5530 5532 5534 5535 5536 5536
5422 5417 5413 5408 5402 5396 5395 5394 5393 5392 5393 5397 5401 5406 5411 5417 5422 5428 5434 5441 5447 5453 5458 5464 5470 5476 5481 5488 5493 5497 5502 5505 5509 5511 5515 5519 5522 5524 5526 5527 5527 5527 5528
5413 5410 5405 5399 5393 5390 5390 5390 5390 5391 5394 5397 5402 5406 5411 5415 5421 5427 5432 5438 5444 5449 5454 5461 5467 5473 5478 5483 5488 5493 5497 5500 5503 5506 5510 5513 5516 5518 5520 5521 5521 5522 5523
5407 5403 5399 5394 5389 5388 5387 5387 5388 5391 5394 5397 5401 5405 5409 5414 5419 5425 5430 5436 5441 5446 5452 5458 5464 5470 5475 5480 5485 5489 5492 5495 5498 5502 5505 5508 5510 5511 5513 5514 5516 5517 5517
5401 5398 5394 5390 5387 5386 5386 5386 5388 5391 5394 5397 5400 5404 5409 5413 5418 5423 5427 5433 5438 5443 5449 5455 5461 5467 5472 5476 5480 5483 5486 5490 5494 5497 5499 5501 5503 5505 5508 5509 5510 5511 5512
5394 5392 5390 5387 5385 5384 5384 5385 5387 5390 5392 5395 5399 5403 5408 5412 5416 5420 5425 5430 5436 5442 5447 5453 5458 5463 5467 5472 5475 5479 5482 5486 5489 5491 5493 5496 5498 5500 5502 5504 5505 5507 5508
5388 5387 5385 5383 5382 5382 5382 5383 5386 5388 5391 5395 5399 5403 5406 5410 5414 5419 5423 5428 5433 5439 5444 5450 5455 5459 5464 5468 5471 5475 5478 5481 5483 5486 5489 5491 5493 5495 5497 5499 5501 5503 5504
5381 5381 5380 5379 5378 5379 5379 5381 5384 5387 5390 5394 5398 5402 5405 5409 5413 5418 5424 5429 5433 5438 5443 5448 5452 5456 5460 5464 5467 5470 5473 5477 5480 5482 5485 5487 5489 5492 5494 5496 5497 5498 5498
5374 5375 5375 5375 5375 5375 5376 5378 5382 5385 5388 5392 5397 5400 5404 5408 5411 5417 5423 5428 5433 5437 5441 5445 5449 5453 5457 5461 5464 5467 5470 5473 5476 5479 5481 5484 5486 5488 5489 5491 5492 5493 5492
5369 5369 5370 5371 5371 5372 5372 5374 5379 5383 5386 5391 5395 5398 5402 5407 5410 5415 5421 5426 5431 5435 5439 5443 5447 5451 5454 5458 5461 5464 5467 5470 5473 5475 5478 5480 5482 5483 5485 5486 5486 5487 5486
5364 5365 5366 5367 5367 5368 5369 5371 5376 5380 5384 5389 5393 5396 5401 5406 5411 5415 5419 5424 5429 5433 5437 5441 5445 5448 5452 5456 5459 5462 5465 5467 5470 5472 5474 5476 5477 5479 5479 5480 5480 5480 5480
5359 5360 5361 5362 5363 5364 5365 5368 5373 5378 5382 5386 5390 5395 5400 5405 5410 5414 5418 5423 5427 5431 5435 5438 5443 5447 5451 5454 5457 5459 5462 5464 5466 5468 5470 5472 5473 5474 5474 5474 5474 5474 5473
5354 5356 5357 5358 5360 5361 5362 5365 5369 5375 5379 5383 5388 5394 5399 5404 5408 5413 5417 5421 5426 5430 5433 5437 5441 5445 5449 5451 5454 5456 5458 5460 5462 5464 5465 5466 5467 5468 5468 5468 5468 5468 5467
5350 5351 5353 5354 5356 5357 5359 5362 5366 5371 5376 5380 5386 5392 5397 5402 5406 5411 5416 5420 5424 5428 5432 5436 5439 5442 5445 5448 5450 5452 5454 5456 5458 5460 5461 5462 5462 5462 5462 5462 5462 5462 5461